| time (UTC) | temp F | wind direction | speed knots | gust knots | rain 1hr in | rain 24hr in | rain mn in | humidity % | barometer mb |
| 20260505124927 | 54 | 194 | 2.6 | 5.2 | 0.00 | 0.00 | 0.00 | 96 | 1015.8 |
| 20260505123913 | 54 | 180 | 1.7 | 3.5 | 0.00 | 0.00 | 0.00 | 96 | 1015.8 |
| 20260505122921 | 54 | 190 | 1.7 | 3.5 | 0.00 | 0.00 | 0.00 | 96 | 1015.7 |
| 20260505121935 | 54 | 169 | 1.7 | 3.5 | 0.00 | 0.00 | 0.00 | 96 | 1015.7 |
| 20260505120945 | 54 | 181 | 2.6 | 4.3 | 0.00 | 0.00 | 0.00 | 96 | 1015.6 |
| 20260505115926 | 54 | 205 | 2.6 | 6.1 | 0.00 | 0.00 | 0.00 | 96 | 1015.6 |
| 20260505114917 | 54 | 167 | 4.3 | 6.1 | 0.00 | 0.00 | 0.00 | 96 | 1015.5 |
| 20260505113919 | 54 | 178 | 4.3 | 7.0 | 0.00 | 0.00 | 0.00 | 96 | 1015.5 |
| 20260505112946 | 54 | 180 | 4.3 | 6.1 | 0.00 | 0.00 | 0.00 | 96 | 1015.6 |
| 20260505111927 | 54 | 180 | 3.5 | 6.1 | 0.00 | 0.00 | 0.00 | 96 | 1015.5 |
| 20260505110938 | 54 | 199 | 3.5 | 5.2 | 0.00 | 0.00 | 0.00 | 96 | 1015.6 |
| 20260505101927 | 54 | 211 | 5.2 | 7.0 | 0.00 | 0.00 | 0.00 | 95 | 1015.4 |
| 20260505100916 | 54 | 198 | 4.3 | 5.2 | 0.00 | 0.00 | 0.00 | 95 | 1015.4 |
| 20260505095937 | 54 | 201 | 4.3 | 7.0 | 0.00 | 0.00 | 0.00 | 95 | 1015.5 |
| 20260505094915 | 54 | 182 | 4.3 | 7.0 | 0.00 | 0.00 | 0.00 | 94 | 1015.4 |
| 20260505093925 | 54 | 194 | 5.2 | 11.3 | 0.00 | 0.00 | 0.00 | 94 | 1015.3 |
| 20260505092947 | 55 | 195 | 7.8 | 9.6 | 0.00 | 0.00 | 0.00 | 93 | 1015.2 |
| 20260505091926 | 55 | 176 | 2.6 | 7.8 | 0.00 | 0.00 | 0.00 | 93 | 1015.1 |
| 20260505090913 | 55 | 216 | 4.3 | 8.7 | 0.00 | 0.00 | 0.00 | 93 | 1015.0 |
| 20260505085924 | 55 | 169 | 4.3 | 7.8 | 0.00 | 0.00 | 0.00 | 93 | 1015.0 |
| 20260505084927 | 55 | 181 | 6.1 | 12.2 | 0.00 | 0.00 | 0.00 | 93 | 1015.0 |
| 20260505083913 | 55 | 199 | 6.1 | 10.4 | 0.00 | 0.00 | 0.00 | 94 | 1015.1 |
| 20260505082925 | 54 | 173 | 6.1 | 7.8 | 0.00 | 0.00 | 0.00 | 94 | 1015.1 |
| 20260505081936 | 54 | 177 | 5.2 | 10.4 | 0.00 | 0.00 | 0.00 | 94 | 1015.0 |
| 20260505080919 | 54 | 221 | 7.0 | 11.3 | 0.00 | 0.00 | 0.00 | 94 | 1015.1 |
| 20260505075923 | 54 | 177 | 4.3 | 10.4 | 0.00 | 0.00 | 0.00 | 95 | 1015.2 |
| 20260505074927 | 54 | 192 | 4.3 | 10.4 | 0.00 | 0.00 | 0.00 | 95 | 1015.3 |
| 20260505073945 | 54 | 168 | 4.3 | 7.8 | 0.00 | 0.00 | 0.00 | 95 | 1015.2 |
| 20260505072937 | 54 | 198 | 6.1 | 12.2 | 0.00 | 0.00 | 0.00 | 96 | 1015.2 |
| 20260505071921 | 54 | 182 | 7.0 | 11.3 | 0.00 | 0.00 | 0.00 | 96 | 1015.2 |
| 20260505070922 | 54 | 182 | 7.8 | 9.6 | 0.00 | 0.00 | 0.00 | 95 | 1015.2 |
| 20260505065928 | 54 | 211 | 6.1 | 8.7 | 0.00 | 0.00 | 0.00 | 95 | 1015.2 |
| 20260505064925 | 54 | 186 | 7.8 | 8.7 | 0.00 | 0.00 | 0.00 | 95 | 1015.4 |
| 20260505063920 | 54 | 212 | 7.0 | 8.7 | 0.00 | 0.00 | 0.00 | 95 | 1015.4 |
| 20260505062935 | 54 | 182 | 7.0 | 9.6 | 0.00 | 0.00 | 0.00 | 95 | 1015.3 |
| 20260505061922 | 54 | 161 | 7.0 | 9.6 | 0.00 | 0.00 | 0.00 | 95 | 1015.2 |
| 20260505060926 | 54 | 202 | 6.1 | 8.7 | 0.00 | 0.00 | 0.00 | 94 | 1015.3 |
| 20260505055913 | 54 | 167 | 7.0 | 8.7 | 0.00 | 0.00 | 0.00 | 95 | 1015.3 |
| 20260505054946 | 54 | 181 | 6.1 | 9.6 | 0.00 | 0.00 | 0.00 | 94 | 1015.3 |
| 20260505053938 | 54 | 206 | 7.0 | 8.7 | 0.00 | 0.00 | 0.00 | 94 | 1015.5 |
| 20260505052927 | 54 | 189 | 7.0 | 9.6 | 0.00 | 0.00 | 0.00 | 94 | 1015.4 |
| 20260505051925 | 54 | 190 | 6.1 | 8.7 | 0.00 | 0.00 | 0.00 | 94 | 1015.4 |
| 20260505050926 | 54 | 204 | 7.8 | 9.6 | 0.00 | 0.00 | 0.00 | 94 | 1015.3 |
| 20260505040916 | 55 | 134 | 8.7 | 13.0 | 0.00 | 0.00 | 0.00 | 93 | 1014.7 |
| 20260505035930 | 55 | 187 | 8.7 | 11.3 | 0.00 | 0.00 | 0.00 | 93 | 1014.7 |
| 20260505034919 | 55 | 196 | 8.7 | 13.0 | 0.00 | 0.00 | 0.00 | 93 | 1014.6 |
| 20260505033924 | 55 | 196 | 7.8 | 10.4 | 0.00 | 0.00 | 0.00 | 92 | 1014.6 |
| 20260505032937 | 55 | 174 | 8.7 | 9.6 | 0.00 | 0.00 | 0.00 | 92 | 1014.6 |
| 20260505031921 | 55 | 157 | 7.8 | 12.2 | 0.00 | 0.00 | 0.00 | 92 | 1014.5 |
| 20260505030944 | 55 | 172 | 8.7 | 12.2 | 0.00 | 0.00 | 0.00 | 91 | 1014.3 |
| 20260505025935 | 55 | 161 | 7.8 | 12.2 | 0.00 | 0.00 | 0.00 | 91 | 1014.2 |
| 20260505024919 | 55 | 182 | 8.7 | 12.2 | 0.00 | 0.00 | 0.00 | 91 | 1014.2 |
| 20260505023943 | 55 | 128 | 7.8 | 12.2 | 0.00 | 0.00 | 0.00 | 91 | 1014.2 |
| 20260505022928 | 55 | 191 | 7.8 | 10.4 | 0.00 | 0.00 | 0.00 | 91 | 1014.3 |
| 20260505021926 | 55 | 150 | 7.8 | 13.0 | 0.00 | 0.00 | 0.00 | 92 | 1014.1 |
| 20260505020925 | 55 | 194 | 7.8 | 9.6 | 0.00 | 0.00 | 0.00 | 92 | 1014.0 |
| 20260505015915 | 55 | 194 | 8.7 | 10.4 | 0.00 | 0.00 | 0.00 | 91 | 1014.1 |
| 20260505014927 | 55 | 200 | 7.8 | 11.3 | 0.00 | 0.00 | 0.00 | 91 | 1014.1 |
| 20260505013942 | 56 | 206 | 7.8 | 11.3 | 0.00 | 0.00 | 0.00 | 91 | 1014.1 |
| 20260505012917 | 56 | 181 | 7.8 | 11.3 | 0.00 | 0.00 | 0.00 | 91 | 1014.3 |
| 20260505011919 | 56 | 180 | 8.7 | 12.2 | 0.00 | 0.00 | 0.00 | 91 | 1014.5 |
| 20260505010921 | 56 | 192 | 8.7 | 12.2 | 0.00 | 0.00 | 0.00 | 91 | 1014.6 |
| 20260505005931 | 56 | 180 | 8.7 | 12.2 | 0.00 | 0.00 | 0.00 | 91 | 1014.7 |
| 20260505004925 | 56 | 176 | 8.7 | 13.0 | 0.00 | 0.00 | 0.00 | 91 | 1014.7 |
| 20260505003921 | 56 | 191 | 8.7 | 12.2 | 0.00 | 0.00 | 0.00 | 91 | 1014.9 |
| 20260505002923 | 56 | 200 | 8.7 | 12.2 | 0.00 | 0.00 | 0.00 | 91 | 1014.8 |
| 20260505001934 | 57 | 166 | 8.7 | 12.2 | 0.00 | 0.00 | 0.00 | 91 | 1014.8 |
| 20260505000924 | 57 | 182 | 8.7 | 11.3 | 0.00 | 0.00 | 0.00 | 91 | 1014.7 |
| 20260504235923 | 57 | 172 | 8.7 | 11.3 | 0.00 | 0.00 | 0.00 | 91 | 1014.8 |
| 20260504234953 | 56 | 181 | 8.7 | 12.2 | 0.00 | 0.00 | 0.00 | 92 | 1014.8 |
| 20260504233922 | 57 | 185 | 8.7 | 13.0 | 0.00 | 0.00 | 0.00 | 91 | 1014.8 |
| 20260504232925 | 57 | 174 | 10.4 | 13.0 | 0.00 | 0.00 | 0.00 | 91 | 1014.8 |
| 20260504231915 | 57 | 189 | 11.3 | 13.9 | 0.00 | 0.00 | 0.00 | 92 | 1014.7 |
| 20260504230924 | 56 | 153 | 9.6 | 13.9 | 0.00 | 0.00 | 0.00 | 92 | 1014.8 |
| 20260504225927 | 56 | 195 | 9.6 | 12.2 | 0.00 | 0.00 | 0.00 | 92 | 1014.9 |
| 20260504224919 | 56 | 189 | 9.6 | 13.0 | 0.00 | 0.00 | 0.00 | 93 | 1015.0 |
| 20260504223931 | 56 | 180 | 9.6 | 12.2 | 0.00 | 0.00 | 0.00 | 94 | 1015.0 |
| 20260504222921 | 56 | 159 | 8.7 | 13.9 | 0.00 | 0.00 | 0.00 | 95 | 1015.2 |
| 20260504221923 | 56 | 182 | 8.7 | 12.2 | 0.00 | 0.00 | 0.00 | 94 | 1015.3 |
| 20260504220914 | 56 | 183 | 9.6 | 15.6 | 0.00 | 0.00 | 0.00 | 94 | 1015.4 |
| 20260504215924 | 56 | 165 | 9.6 | 14.8 | 0.00 | 0.00 | 0.00 | 95 | 1015.5 |
| 20260504214916 | 56 | 194 | 9.6 | 14.8 | 0.00 | 0.00 | 0.00 | 96 | 1015.5 |
| 20260504213925 | 56 | 207 | 9.6 | 13.0 | 0.00 | 0.00 | 0.00 | 95 | 1015.7 |
| 20260504212916 | 56 | 186 | 10.4 | 12.2 | 0.00 | 0.00 | 0.00 | 96 | 1015.6 |
| 20260504211944 | 55 | 188 | 9.6 | 12.2 | 0.00 | 0.00 | 0.00 | 96 | 1015.7 |
| 20260504210927 | 55 | 205 | 9.6 | 13.0 | 0.00 | 0.00 | 0.00 | 96 | 1015.7 |
| 20260504205938 | 55 | 182 | 10.4 | 15.6 | 0.00 | 0.00 | 0.00 | 96 | 1015.7 |
| 20260504204942 | 55 | 155 | 10.4 | 13.0 | 0.00 | 0.00 | 0.00 | 96 | 1015.6 |
| 20260504204003 | 55 | 173 | 10.4 | 13.0 | 0.00 | 0.00 | 0.00 | 96 | 1015.5 |
| 20260504202925 | 55 | 162 | 7.8 | 13.0 | 0.00 | 0.00 | 0.00 | 97 | 1015.6 |
| 20260504201936 | 55 | 186 | 11.3 | 13.9 | 0.00 | 0.00 | 0.00 | 97 | 1015.7 |
| 20260504200914 | 55 | 192 | 9.6 | 12.2 | 0.00 | 0.00 | 0.00 | 97 | 1015.7 |
| 20260504195924 | 55 | 183 | 8.7 | 11.3 | 0.00 | 0.00 | 0.00 | 97 | 1015.6 |
| 20260504194936 | 54 | 173 | 9.6 | 13.0 | 0.00 | 0.00 | 0.00 | 97 | 1015.7 |
| 20260504193928 | 54 | 213 | 9.6 | 13.0 | 0.00 | 0.00 | 0.00 | 96 | 1015.5 |
| 20260504192914 | 54 | 203 | 9.6 | 12.2 | 0.00 | 0.00 | 0.00 | 97 | 1015.5 |
| 20260504191947 | 54 | 190 | 9.6 | 13.0 | 0.00 | 0.00 | 0.00 | 96 | 1015.4 |
| 20260504190928 | 54 | 185 | 9.6 | 13.0 | 0.00 | 0.00 | 0.00 | 97 | 1015.4 |
| 20260504185915 | 54 | 209 | 8.7 | 12.2 | 0.00 | 0.00 | 0.00 | 97 | 1015.4 |
| 20260504184937 | 54 | 182 | 10.4 | 13.0 | 0.00 | 0.00 | 0.00 | 97 | 1015.6 |
| 20260504183927 | 54 | 191 | 8.7 | 11.3 | 0.00 | 0.00 | 0.00 | 96 | 1015.6 |
| 20260504182913 | 54 | 160 | 9.6 | 12.2 | 0.00 | 0.00 | 0.00 | 96 | 1015.5 |
| 20260504181918 | 54 | 174 | 8.7 | 12.2 | 0.00 | 0.00 | 0.00 | 96 | 1015.4 |
| 20260504180915 | 54 | 180 | 8.7 | 12.2 | 0.00 | 0.00 | 0.00 | 97 | 1015.5 |
| 20260504175924 | 54 | 192 | 9.6 | 13.0 | 0.00 | 0.00 | 0.00 | 96 | 1015.4 |
| 20260504174926 | 54 | 181 | 10.4 | 12.2 | 0.00 | 0.00 | 0.00 | 96 | 1015.4 |
| 20260504173936 | 54 | 163 | 9.6 | 13.0 | 0.00 | 0.00 | 0.00 | 96 | 1015.3 |
| 20260504172926 | 54 | 119 | 8.7 | 12.2 | 0.00 | 0.00 | 0.00 | 96 | 1015.3 |
| 20260504171940 | 54 | 173 | 8.7 | 13.9 | 0.00 | 0.00 | 0.00 | 96 | 1015.2 |
| 20260504170924 | 54 | 190 | 11.3 | 13.9 | 0.00 | 0.00 | 0.00 | 96 | 1015.1 |
| 20260504150916 | 53 | 183 | 8.7 | 15.6 | 0.00 | 0.00 | 0.00 | 98 | 1014.4 |